| time (UTC) | temp C | wind direction | speed KPH | gust KPH | rain 1hr cm | rain 24hr cm | rain mn cm | humidity % | barometer mb |
| 20260504100516 | 5 | 0 | 1.6 | 1.6 | 0.00 | 0.00 | 0.00 | 91 | 1017.6 |
| 20260504081536 | 5 | 0.0 | 3.2 | 0.00 | 0.00 | 0.00 | 88 | 1017.4 | |
| 20260504080516 | 5 | 0.0 | 3.2 | 0.00 | 0.00 | 0.00 | 88 | 1017.3 | |
| 20260504050516 | 7 | 0.0 | 3.2 | 0.00 | 0.00 | 0.00 | 78 | 1018.0 | |
| 20260504045516 | 7 | 0.0 | 0.0 | 0.00 | 0.00 | 0.00 | 78 | 1017.8 | |
| 20260504044516 | 7 | 0.0 | 0.0 | 0.00 | 0.00 | 0.00 | 76 | 1017.8 | |
| 20260504043516 | 7 | 0.0 | 3.2 | 0.00 | 0.00 | 0.00 | 76 | 1017.9 | |
| 20260504042536 | 7 | 0.0 | 3.2 | 0.00 | 0.00 | 0.00 | 76 | 1018.0 | |
| 20260504041536 | 7 | 0.0 | 0.0 | 0.00 | 0.00 | 0.00 | 74 | 1017.9 | |
| 20260504040516 | 7 | 0.0 | 1.6 | 0.00 | 0.00 | 0.00 | 74 | 1017.8 | |
| 20260504035537 | 8 | 0.0 | 0.0 | 0.00 | 0.00 | 0.00 | 72 | 1017.6 | |
| 20260504034517 | 8 | 0.0 | 3.2 | 0.00 | 0.00 | 0.00 | 70 | 1017.6 | |
| 20260504033517 | 8 | 0.0 | 1.6 | 0.00 | 0.00 | 0.00 | 69 | 1017.5 | |
| 20260504032517 | 9 | 0.0 | 3.2 | 0.00 | 0.00 | 0.00 | 69 | 1017.8 | |
| 20260504031517 | 9 | 0.0 | 1.6 | 0.00 | 0.00 | 0.00 | 67 | 1017.8 | |
| 20260504030516 | 10 | 0.0 | 0.0 | 0.00 | 0.00 | 0.00 | 66 | 1017.3 | |
| 20260504025517 | 9 | 0.0 | 1.6 | 0.00 | 0.00 | 0.00 | 66 | 1017.4 | |
| 20260504024516 | 9 | 0.0 | 0.0 | 0.00 | 0.00 | 0.00 | 68 | 1017.5 | |
| 20260504023536 | 10 | 0.0 | 0.0 | 0.00 | 0.00 | 0.00 | 65 | 1017.5 | |
| 20260504022517 | 10 | 0.0 | 3.2 | 0.00 | 0.00 | 0.00 | 63 | 1017.4 | |
| 20260504021517 | 10 | 0 | 1.6 | 1.6 | 0.00 | 0.00 | 0.00 | 65 | 1017.2 |
| 20260504020516 | 10 | 0 | 1.6 | 1.6 | 0.00 | 0.00 | 0.00 | 64 | 1017.2 |
| 20260504015516 | 10 | 0.0 | 3.2 | 0.00 | 0.00 | 0.00 | 64 | 1017.2 | |
| 20260504014517 | 10 | 338 | 1.6 | 1.6 | 0.00 | 0.00 | 0.00 | 61 | 1017.3 |
| 20260504013537 | 10 | 0 | 1.6 | 1.6 | 0.00 | 0.00 | 0.00 | 62 | 1017.1 |
| 20260504012516 | 10 | 0 | 1.6 | 1.6 | 0.00 | 0.00 | 0.00 | 62 | 1017.1 |
| 20260504011517 | 11 | 0.0 | 3.2 | 0.00 | 0.00 | 0.00 | 57 | 1017.0 | |
| 20260504010517 | 11 | 0.0 | 1.6 | 0.00 | 0.00 | 0.00 | 58 | 1016.9 | |
| 20260504005517 | 11 | 0.0 | 3.2 | 0.00 | 0.00 | 0.00 | 57 | 1017.2 | |
| 20260504004536 | 12 | 0 | 1.6 | 1.6 | 0.00 | 0.00 | 0.00 | 55 | 1017.0 |
| 20260504003516 | 12 | 0.0 | 1.6 | 0.00 | 0.00 | 0.00 | 55 | 1016.6 | |
| 20260504002516 | 12 | 0 | 1.6 | 1.6 | 0.00 | 0.00 | 0.00 | 53 | 1016.7 |
| 20260504001536 | 13 | 23 | 1.6 | 1.6 | 0.00 | 0.00 | 0.00 | 53 | 1016.5 |
| 20260504000523 | 13 | 315 | 1.6 | 3.2 | 0.00 | 0.00 | 0.00 | 50 | 1016.2 |
| 20260503235516 | 15 | 0.0 | 3.2 | 0.00 | 0.00 | 0.00 | 46 | 1016.3 | |
| 20260503234556 | 15 | 0.0 | 3.2 | 0.00 | 0.00 | 0.00 | 44 | 1016.5 | |
| 20260503233516 | 16 | 248 | 1.6 | 6.4 | 0.00 | 0.00 | 0.00 | 41 | 1016.7 |
| 20260503232516 | 16 | 293 | 1.6 | 3.2 | 0.00 | 0.00 | 0.00 | 40 | 1016.7 |
| 20260503231516 | 17 | 225 | 1.6 | 4.8 | 0.00 | 0.00 | 0.00 | 39 | 1016.9 |
| 20260503230516 | 17 | 270 | 1.6 | 6.4 | 0.00 | 0.00 | 0.00 | 39 | 1016.9 |
| 20260503225516 | 17 | 203 | 3.2 | 6.4 | 0.00 | 0.00 | 0.00 | 40 | 1017.2 |
| 20260503224516 | 17 | 225 | 3.2 | 6.4 | 0.00 | 0.00 | 0.00 | 39 | 1017.1 |
| 20260503223536 | 17 | 203 | 6.4 | 14.5 | 0.00 | 0.00 | 0.00 | 39 | 1017.2 |
| 20260503222516 | 17 | 225 | 6.4 | 11.3 | 0.00 | 0.00 | 0.00 | 38 | 1017.5 |
| 20260503221516 | 17 | 203 | 3.2 | 8.0 | 0.00 | 0.00 | 0.00 | 36 | 1017.5 |
| 20260503220516 | 18 | 225 | 3.2 | 6.4 | 0.00 | 0.00 | 0.00 | 36 | 1017.7 |
| 20260503215516 | 17 | 180 | 4.8 | 12.9 | 0.00 | 0.00 | 0.00 | 38 | 1017.7 |
| 20260503214516 | 18 | 225 | 3.2 | 8.0 | 0.00 | 0.00 | 0.00 | 39 | 1017.7 |
| 20260503213516 | 17 | 203 | 3.2 | 6.4 | 0.00 | 0.00 | 0.00 | 38 | 1018.0 |
| 20260503212516 | 17 | 225 | 4.8 | 9.7 | 0.00 | 0.00 | 0.00 | 36 | 1018.1 |
| 20260503211516 | 17 | 293 | 4.8 | 9.7 | 0.00 | 0.00 | 0.00 | 38 | 1018.1 |
| 20260503210536 | 17 | 225 | 4.8 | 11.3 | 0.00 | 0.00 | 0.00 | 37 | 1018.1 |
| 20260503205536 | 18 | 203 | 1.6 | 8.0 | 0.00 | 0.00 | 0.00 | 38 | 1018.3 |
| 20260503204516 | 17 | 203 | 6.4 | 16.1 | 0.00 | 0.00 | 0.00 | 37 | 1018.3 |
| 20260503203516 | 17 | 203 | 3.2 | 6.4 | 0.00 | 0.00 | 0.00 | 43 | 1018.5 |
| 20260503202521 | 17 | 203 | 3.2 | 8.0 | 0.00 | 0.00 | 0.00 | 37 | 1018.7 |
| 20260503201516 | 17 | 225 | 3.2 | 8.0 | 0.00 | 0.00 | 0.00 | 41 | 1018.8 |
| 20260503200515 | 17 | 203 | 4.8 | 14.5 | 0.00 | 0.00 | 0.00 | 39 | 1019.0 |
| 20260503195536 | 17 | 225 | 3.2 | 11.3 | 0.00 | 0.00 | 0.00 | 38 | 1019.1 |
| 20260503194516 | 17 | 203 | 4.8 | 14.5 | 0.00 | 0.00 | 0.00 | 40 | 1019.2 |
| 20260503193515 | 16 | 180 | 1.6 | 4.8 | 0.00 | 0.00 | 0.00 | 45 | 1019.4 |
| 20260503192516 | 16 | 225 | 6.4 | 12.9 | 0.00 | 0.00 | 0.00 | 41 | 1019.5 |
| 20260503191516 | 16 | 225 | 3.2 | 9.7 | 0.00 | 0.00 | 0.00 | 39 | 1019.6 |
| 20260503190515 | 16 | 225 | 8.0 | 14.5 | 0.00 | 0.00 | 0.00 | 42 | 1019.8 |
| 20260503185515 | 17 | 315 | 3.2 | 9.7 | 0.00 | 0.00 | 0.00 | 40 | 1019.9 |
| 20260503184516 | 16 | 180 | 4.8 | 11.3 | 0.00 | 0.00 | 0.00 | 42 | 1019.9 |
| 20260503183515 | 16 | 203 | 3.2 | 8.0 | 0.00 | 0.00 | 0.00 | 45 | 1020.1 |
| 20260503182516 | 16 | 225 | 4.8 | 11.3 | 0.00 | 0.00 | 0.00 | 41 | 1020.3 |
| 20260503181515 | 16 | 180 | 4.8 | 11.3 | 0.00 | 0.00 | 0.00 | 42 | 1020.4 |
| 20260503180515 | 15 | 225 | 4.8 | 9.7 | 0.00 | 0.00 | 0.00 | 44 | 1020.6 |
| 20260503175515 | 15 | 203 | 4.8 | 11.3 | 0.00 | 0.00 | 0.00 | 44 | 1020.6 |
| 20260503174516 | 15 | 315 | 4.8 | 11.3 | 0.00 | 0.00 | 0.00 | 39 | 1020.7 |
| 20260503173515 | 15 | 338 | 3.2 | 8.0 | 0.00 | 0.00 | 0.00 | 42 | 1020.8 |
| 20260503172516 | 15 | 225 | 3.2 | 8.0 | 0.00 | 0.00 | 0.00 | 41 | 1020.7 |
| 20260503171536 | 15 | 225 | 3.2 | 11.3 | 0.00 | 0.00 | 0.00 | 47 | 1021.0 |
| 20260503170515 | 15 | 158 | 1.6 | 6.4 | 0.00 | 0.00 | 0.00 | 43 | 1021.2 |
| 20260503150517 | 12 | 135 | 1.6 | 6.4 | 0.00 | 0.00 | 0.00 | 45 | 1022.0 |
| 20260503130517 | 10 | 113 | 1.6 | 3.2 | 0.00 | 0.00 | 0.00 | 62 | 1022.0 |
| 20260503110537 | 1 | 0.0 | 0.0 | 0.00 | 0.00 | 0.00 | 91 | 1020.3 |